Regional Weather Roundup
Issued by NWS Boston, MA

Home | Current Version | Previous Version | Text Only | Print | Product List | Glossary On
Versions: 1 2 3 4 5 6 7 8 9 10 11 12 13 14 15 16 17 18 19 20 21 22 23 24 25 26 27 28 29 30 31 32 33 34 35 36 37 38 39 40 41 42 43 44 45 46 47 48 49 50
000
ASUS41 KBOX 200110
RWRBOX

REGIONAL WEATHER ROUNDUP
NATIONAL WEATHER SERVICE TAUNTON MA
800 PM EST FRI DEC 19 2014

NOTE:  "FAIR" INDICATES FEW OR NO CLOUDS BELOW 12,000 FEET WITH NO
SIGNIFICANT WEATHER AND/OR OBSTRUCTIONS TO VISIBILITY.  THE FOLLOWING
OBSERVATION LOCATIONS DO NOT REPORT PRESENT WEATHER...PROVINCETOWN...
SMITHFIELD...BLOCK ISLAND...KEENE...AND OXFORD.

MAZALL-200200-
EASTERN MASSACHUSETTS

CITY           SKY/WX    TMP DP  RH WIND       PRES   REMARKS
BOSTON         PTCLDY    31  20  63 NW9       30.09R WCI  23
BEVERLY        CLEAR     29  19  66 NW8       30.07R WCI  21
LAWRENCE       CLEAR     28  20  71 VRB5      30.10R WCI  23
BEDFORD        CLEAR     27  19  72 NW7       30.07R WCI  19
BLUE HILL        N/A     27  20  75 NW10      30.04R WCI  17
NORWOOD        FAIR      29  20  69 CALM      30.08R
MARSHFIELD     CLEAR     32  23  69 W5        30.09S WCI  27
PLYMOUTH       NOT AVBL
TAUNTON        CLOUDY    34  21  59 VRB6      30.08R WCI  29
NEW BEDFORD    CLOUDY    34  23  64 CALM      30.08R
$$

MAZALL-200200-
CAPE COD AND THE ISLANDS

CITY           SKY/WX    TMP DP  RH WIND       PRES   REMARKS
FALMOUTH       CLOUDY    34  23  64 NW6       30.07R WCI  29
HYANNIS        CLOUDY    34  23  64 W8        30.05R WCI  27
CHATHAM        CLOUDY    37  26  64 NW6       30.06R
PROVINCETOWN   CLOUDY    36  25  64 NW12G20   30.07R WCI  27
NANTUCKET      CLOUDY    36  24  62 NW10      30.06R WCI  28
MARTHAS VNYRD  CLOUDY    34  20  56 NW5       30.07R WCI  30
$$

MAZALL-200200-
CENTRAL AND WESTERN MASSACHUSETTS

CITY           SKY/WX    TMP DP  RH WIND       PRES   REMARKS
WORCESTER      PTCLDY    27  19  72 NW8       30.04R WCI  19
FITCHBURG      CLEAR     30  19  63 NW9       30.09R WCI  22
ORANGE         CLOUDY    29  19  66 N13       30.08R WCI  19
SPRINGFIELD    MOCLDY    30  21  69 N7        30.09R WCI  23
WESTFIELD      CLEAR     28  20  71 NW7       30.10R WCI  21
NORTH ADAMS    CLOUDY    27  20  75 W7        30.11S WCI  19
PITTSFIELD     CLOUDY    24  20  84 NW12      30.07R WCI  13
$$

RIZALL-200200-
RHODE ISLAND

CITY           SKY/WX    TMP DP  RH WIND       PRES   REMARKS
PROVIDENCE     CLOUDY    33  20  58 NW8       30.09R WCI  26
NEWPORT        CLOUDY    33  22  63 NW8       30.08R WCI  26
BLOCK ISLAND   CLOUDY    36  21  55 N6        30.09R WCI  31
SMITHFIELD     CLOUDY    30  16  55 NW5       30.06R WCI  25
WESTERLY       CLOUDY    33  22  63 W5        30.11R WCI  29
$$

CTZALL-200200-
CONNECTICUT

CITY           SKY/WX    TMP DP  RH WIND       PRES   REMARKS
BRADLEY INTL   MOCLDY    30  20  66 NW8       30.11R WCI  22
HARTFORD       CLOUDY    32  20  61 VRB7      30.13R WCI  26
BRIDGEPORT     CLEAR     31  20  63 NW7       30.14R WCI  24
DANBURY        CLEAR     29  17  61 NW5       30.14R WCI  24
GROTON         CLOUDY    32  22  66 NW10      30.11R WCI  24
NEW HAVEN      PTCLDY    34  20  56 NW8       30.13R WCI  27
CHESTER        FAIR      32  21  64 NW5       30.11R WCI  27
MERIDEN        CLOUDY    31  19  61 NW12      30.13R WCI  22
WILLIMANTIC    CLOUDY    32  21  64 NW6       30.10R WCI  26
$$

MEZ002-015-021-024-NHZ003-005-008-011-012-014-VTZ005-008-200200-
NORTHERN NEW ENGLAND

CITY           SKY/WX    TMP DP  RH WIND       PRES   REMARKS
PORTLAND ME    CLEAR     30  21  69 N9        30.07R WCI  22
BANGOR ME      CLEAR     24  20  84 NW5       30.06R WCI  18
CONCORD NH     CLEAR     26  19  74 NW8       30.08R WCI  18
MANCHESTER NH  CLEAR     28  19  69 NW8       30.07R WCI  20
NASHUA NH      CLEAR     28  21  75 NW7       30.09R WCI  21
PORTSMOUTH NH  CLEAR     28  20  73 W6        30.07R WCI  21
JAFFREY NH     CLEAR     25  18  74 VRB3      30.05R
KEENE NH       CLOUDY    28  19  69 N14       30.10R WCI  17
BURLINGTON VT  CLEAR     21  14  74 NE6       30.20R WCI  13
MT. WASHINGTON MOCLDY    21  16  79 NE37        N/A  WCI   1
$$

NYZ052-076-200200-
EASTERN NEW YORK

CITY           SKY/WX    TMP DP  RH WIND       PRES   REMARKS
ALBANY         CLOUDY    28  19  69 NW12G20   30.17R WCI  18
NEW YORK CITY  MOCLDY    33  21  61 NW16      30.16R WCI  23
$$

ANZALL-200200-
MARINE OBSERVATIONS

STATION/POSITION TIME  TEMP    WIND        PRES    VSBY  WAVE
                       AIR SEA DIR/SP/G                  HT/PER
                 (UTC) (F)     (DEG/KT/KT) (MB)    (MI)  (FT/S)
BOSTON BUOY      0050   33 45  310/ 16/ 19 1018.1R         3/ 3
BUZZARDS BAY     0000          360/ 11/ 14 1018.8R
NANTUCKET SOUND  0050   36 43  310/ 12/ 16 1017.7R         1/ 3
MASS BAY-STELLWA 0004   33 45  300/ 16/ 17   N/A    1 7/8  2/ 4
ISLE OF SHOALS   0100   31     320/ 14/ 15 1017.7R
S OF BLOCK IS    0008      52                N/A           3/ 4
$$

......................KEY.........................
  SKY/WX - SKY CONDITION/PRESENT WEATHER
  TMP    - TEMPERATURE IN FAHRENHEIT
  DWPT   - DEWPOINT IN FAHRENHEIT
  RH     - RELATIVE HUMIDITY IN PERCENT
  WIND   - DIRECTION AND SPEED IN MPH
  PRES   - MEAN SEA LEVEL PRESSURE IN INCHES OF HG
  WCI    - WIND CHILL INDEX
  VSB    - VISIBILITY IN MILES
  HX     - HEAT INDEX
  TC     - TEMPERATURE IN CELSIUS
  VRB    - VARIABLE WIND DIRECTION
  N/A    - NOT AVAILABLE


USA.gov is the U.S. government's official web portal to all federal, state and local government web resources and services.